Temperature
15 15 15 15 15 15 15 15 15 15 15 15 15 15 15 15 15 15 16 16 16 16 16 16 16 16 16 16 16 17 17 17 16 17 17 17 17 17 17 17 17 17 17
15 15 15 15 15 15 15 15 15 15 15 15 15 15 15 15 15 15 15 15 16 16 16 16 16 16 16 16 16 16 16 17 17 16 17 17 17 17 17 17 17 17 17
15 15 15 15 15 15 15 15 15 15 15 15 15 15 15 15 15 15 15 15 15 15 16 16 16 16 16 16 16 16 16 16 16 16 16 16 16 16 17 17 17 17 17
15 15 15 15 15 15 15 15 15 15 15 15 15 15 15 15 15 15 15 15 15 15 15 15 16 16 16 16 16 16 16 16 16 16 16 16 16 16 16 16 16 16 16
15 15 15 15 15 15 15 15 15 15 15 15 15 14 14 14 15 14 15 15 15 15 15 15 15 16 16 16 16 16 16 16 16 16 16 16 16 16 16 16 16 16 16
15 15 15 15 15 15 15 15 15 14 14 14 14 14 14 14 14 14 14 14 15 15 15 15 15 15 15 15 15 15 15 15 16 16 16 16 16 16 16 16 16 16 16
15 15 15 15 15 15 15 15 14 14 14 14 14 14 14 14 14 14 14 14 14 14 14 14 14 14 14 15 15 15 15 15 15 15 15 16 16 16 16 16 16 16 16
15 15 15 15 15 15 15 14 14 14 14 14 14 15 15 14 14 14 14 14 14 14 14 14 14 14 14 14 15 15 15 15 15 15 15 15 15 15 15 15 15 15 15
15 15 15 15 15 15 14 14 14 14 14 14 14 15 15 15 14 14 14 14 14 14 14 14 14 14 14 14 14 14 15 15 15 15 15 15 15 15 15 15 15 15 15
15 15 15 15 15 14 14 14 14 14 14 14 14 14 14 14 15 14 14 14 14 14 14 14 14 14 14 14 14 14 14 14 14 15 15 15 15 15 15 15 15 15 15
15 15 15 15 15 15 14 14 14 14 14 14 14 14 14 14 14 15 14 14 13 13 13 13 13 14 14 14 14 14 14 14 14 14 14 14 14 14 14 14 14 14 14
15 15 15 15 15 14 14 14 14 14 14 14 14 14 14 14 14 14 14 14 14 13 13 13 13 13 13 13 14 14 14 14 14 14 14 14 14 14 14 14 14 14 14
15 15 15 15 15 14 14 14 14 14 14 14 14 14 14 14 14 14 14 14 14 13 13 13 13 13 13 13 13 14 14 14 14 14 14 14 14 14 14 14 14 14 14
15 15 15 15 15 15 14 14 14 14 14 14 14 14 14 14 14 14 14 14 14 14 13 13 13 13 13 13 13 13 13 13 13 13 13 13 13 13 13 13 13 13 13
15 15 15 15 15 15 15 14 14 14 14 14 14 14 14 14 14 14 14 14 14 15 14 13 13 13 13 13 13 13 13 13 13 13 13 13 13 13 13 13 13 13 13
15 15 15 15 15 15 14 14 14 14 14 14 14 14 14 14 14 14 14 14 13 13 14 13 13 13 13 12 13 13 13 13 13 13 13 13 13 13 13 13 13 13 13
15 15 15 15 15 15 15 14 14 14 14 14 14 14 14 14 14 14 14 13 13 13 13 13 13 13 13 12 12 13 12 12 12 13 13 13 13 12 12 12 12 12 12
15 15 15 15 15 15 15 14 14 14 14 14 14 14 14 14 14 14 14 13 13 13 13 13 13 12 13 12 12 12 12 12 12 12 12 12 12 12 12 12 12 12 12
15 15 15 15 15 15 15 14 14 14 14 14 14 14 14 14 14 14 13 13 13 13 13 13 13 13 12 12 12 12 12 12 12 12 12 12 12 12 12 12 12 12 12
15 15 15 15 15 15 15 14 14 14 14 14 14 14 14 14 14 14 13 13 13 13 13 13 13 12 12 12 12 12 12 12 12 12 12 12 12 12 12 11 11 11 11
15 15 15 15 15 15 15 15 14 14 14 14 14 14 14 14 14 14 13 13 13 13 13 12 12 12 12 12 12 12 11 11 11 11 11 11 11 11 11 11 11 11 11
15 15 15 15 15 15 15 15 14 14 14 14 14 14 13 13 13 13 13 13 13 13 12 12 12 12 12 12 11 11 11 11 11 11 11 11 11 11 11 11 11 11 11
15 15 15 15 15 15 15 15 15 14 14 14 13 13 13 13 13 13 13 13 13 13 13 12 12 11 11 11 11 11 11 11 11 11 11 11 11 11 11 11 11 11 11
15 15 15 15 15 15 15 14 14 14 14 14 13 13 13 13 13 13 13 13 12 12 12 12 12 12 11 11 11 11 11 11 11 10 10 10 10 10 10 10 10 10 10
15 15 15 15 15 14 14 14 14 14 13 13 13 13 13 13 13 13 12 12 12 12 12 12 12 12 11 11 11 11 10 10 10 10 10 9 9 9 10 10 10 10 10
15 15 15 15 14 14 14 14 14 13 13 13 13 13 13 13 13 12 12 12 12 11 11 11 11 11 11 11 11 10 10 9 9 9 9 9 8 8 8 9 9 9 9
Wind_Speed
4 5 5 5 5 5 5 5 6 6 6 6 7 7 7 7 7 7 8 11 11 11 11 11 10 10 10 11 11 11 10 9 8 8 8 8 7 6 5 5 5 4 5
5 4 5 5 5 5 5 5 6 5 6 6 7 7 7 7 7 7 7 9 12 13 13 12 12 11 11 11 11 12 11 9 9 9 8 8 8 6 5 5 5 5 5
5 5 4 4 5 5 6 5 6 6 6 6 7 7 8 8 8 9 8 8 9 13 14 14 13 13 12 12 12 12 12 11 10 10 9 9 8 8 7 6 6 6 6
5 5 4 4 5 5 5 4 4 5 6 6 7 7 7 7 9 9 9 9 9 9 12 14 15 15 14 13 12 12 12 11 11 10 10 9 9 9 8 8 7 7 7
4 5 4 4 5 4 4 4 5 5 6 6 7 7 7 7 7 8 9 10 10 10 10 11 13 15 15 14 14 13 12 12 11 10 10 10 10 10 9 9 9 8 8
4 4 4 4 4 4 4 4 5 5 5 5 6 6 6 6 6 7 8 9 9 10 10 10 9 11 14 15 15 14 13 12 11 11 10 10 10 10 9 9 9 9 9
4 4 3 4 3 3 4 4 5 5 4 4 4 4 5 6 6 6 6 7 8 9 10 10 10 9 9 11 14 14 13 13 11 11 11 10 10 10 10 10 10 9 9
3 3 3 3 3 3 4 4 3 3 3 1 1 1 2 3 4 5 5 5 6 7 8 10 10 9 9 8 11 14 14 13 12 11 11 10 10 10 10 10 10 10 10
4 3 3 3 3 3 3 2 2 2 1 1 2 2 1 2 2 3 4 4 5 5 6 8 9 9 9 9 9 12 14 13 12 11 10 10 10 10 10 10 10 10 10
3 3 3 2 2 2 2 2 1 0 0 1 2 3 3 2 1 1 2 3 4 5 6 6 7 8 9 8 9 12 13 13 12 11 11 10 10 10 9 9 9 9 9
3 3 3 3 3 2 2 1 1 1 1 2 2 1 2 1 1 1 1 1 2 4 4 5 6 7 8 8 8 11 12 13 13 12 11 10 9 9 9 9 9 9 9
3 3 3 3 2 2 2 1 1 1 1 2 2 1 1 1 1 1 1 1 1 2 3 4 5 6 7 7 9 10 11 12 12 12 12 11 10 9 9 9 9 9 9
3 3 2 2 2 2 2 1 1 0 0 1 1 1 1 2 2 1 1 1 1 1 1 2 4 5 5 6 7 7 10 11 11 11 11 11 11 10 9 9 8 8 8
2 3 2 2 3 2 2 2 1 1 1 1 1 1 1 1 1 1 1 1 0 1 1 2 2 4 4 5 7 5 7 9 9 10 10 10 10 10 10 9 8 8 8
3 3 3 3 3 2 2 2 1 1 2 1 2 2 1 1 1 1 1 2 2 1 1 2 1 3 3 4 5 5 5 7 7 7 8 8 8 8 8 8 7 7 7
3 3 3 3 3 3 2 1 1 2 2 2 2 2 2 1 1 1 1 1 2 2 2 2 2 2 2 2 3 3 3 3 4 4 5 5 5 6 6 6 6 6 6
4 3 3 2 2 2 2 2 1 1 1 2 2 2 2 2 1 1 1 1 1 1 1 1 1 1 1 2 2 2 3 3 2 2 3 3 4 4 4 4 5 5 5
4 4 3 3 2 2 2 2 2 1 1 1 1 1 1 1 1 1 0 0 1 1 2 2 1 1 2 2 3 3 3 3 2 1 1 2 3 3 3 4 4 4 5
5 4 4 3 3 2 2 2 2 1 1 1 1 1 1 1 0 1 0 0 1 1 1 1 1 1 2 2 3 3 3 3 3 2 2 3 4 4 4 5 5 5 5
5 5 4 3 3 2 2 2 2 2 1 1 1 0 0 0 0 0 0 0 1 1 1 1 1 2 2 2 3 3 3 2 3 3 3 4 4 6 7 7 7 7 7
5 4 4 4 3 3 2 2 2 2 2 1 1 1 1 2 3 2 1 1 1 1 1 2 2 2 2 2 3 3 4 4 4 3 4 4 5 5 6 8 8 9 9
5 4 4 4 4 3 3 2 3 3 2 2 2 1 1 2 2 2 1 2 2 2 3 3 3 4 4 4 3 4 4 5 4 2 4 5 4 5 6 6 5 7 9
5 5 5 4 4 4 5 4 4 3 2 2 2 2 1 1 2 2 3 4 3 3 4 5 5 5 5 4 4 5 5 6 6 5 5 6 5 6 6 7 6 8 10
6 5 5 5 4 4 5 5 5 5 3 3 2 2 2 2 1 2 2 2 2 2 3 4 5 5 5 5 5 6 7 7 7 5 4 6 6 7 7 8 7 9 11
6 5 5 5 5 5 5 5 5 4 3 3 2 2 2 2 2 1 3 3 3 3 2 3 5 5 5 4 4 4 5 6 7 6 3 5 7 8 8 7 7 9 11
5 5 4 4 5 4 5 5 5 3 3 3 2 2 1 1 1 1 3 3 4 4 3 3 4 4 5 4 5 5 5 6 7 6 3 4 6 7 6 5 6 7 9
Wind_Direction
79 83 83 78 74 79 84 78 77 76 73 68 66 67 64 65 61 64 67 56 47 46 48 45 43 47 50 48 46 44 45 47 46 43 38 37 49 54 52 44 39 40 41
79 80 81 76 73 76 77 84 81 77 72 70 68 67 63 62 60 63 64 66 60 52 49 47 45 48 50 50 48 44 44 48 49 44 41 39 42 44 47 51 51 53 50
81 78 77 80 81 87 87 80 80 79 76 75 71 67 66 58 58 58 56 56 64 63 54 49 47 46 49 50 47 44 42 45 48 43 40 41 43 48 51 54 55 54 53
86 86 83 84 90 91 90 88 82 85 80 72 68 63 65 61 57 56 58 58 55 56 60 52 47 45 46 46 45 43 42 44 46 45 44 44 44 48 54 57 58 60 57
89 94 87 93 98 91 89 91 87 85 85 80 76 66 60 59 56 55 56 56 56 51 51 54 52 47 44 41 40 40 41 44 46 47 48 48 48 51 56 57 57 60 58
83 95 101 103 100 96 92 95 98 89 86 87 82 73 63 63 59 54 52 54 52 50 45 43 46 49 46 39 36 36 36 39 45 48 49 50 51 52 56 59 59 58 58
85 94 102 104 101 99 99 109 110 107 97 96 97 91 82 67 60 57 51 51 54 48 46 44 40 36 43 44 36 32 34 36 44 49 51 52 53 52 53 60 60 57 55
83 95 101 108 109 111 117 117 121 111 103 69 48 113 120 108 65 59 58 53 48 48 46 43 41 38 34 37 38 32 32 37 46 52 51 51 53 54 56 59 58 55 55
81 82 92 105 114 124 123 132 141 134 110 89 28 352 1 56 96 83 58 59 55 47 44 40 38 37 35 35 34 36 32 36 43 48 48 49 53 59 63 61 58 54 52
83 86 99 103 114 110 119 131 116 81 14 55 61 25 19 29 334 117 103 72 58 49 42 39 35 35 34 37 39 35 33 32 37 43 47 51 51 55 60 61 58 54 53
83 84 94 99 102 101 103 97 80 7 5 1 7 31 44 32 318 328 79 84 73 56 43 35 33 32 31 35 34 35 35 34 36 38 44 48 50 52 57 59 59 57 57
106 97 95 97 98 94 91 75 75 38 350 360 354 356 345 339 345 356 3 78 54 52 50 40 33 31 30 33 38 35 39 38 38 38 39 44 46 50 53 52 52 53 55
132 116 109 104 95 90 81 65 62 352 331 347 347 353 356 348 347 336 352 55 56 67 59 57 38 31 29 31 36 31 45 38 39 40 41 43 43 43 44 42 44 48 51
137 127 116 100 95 92 89 76 35 37 21 57 42 29 20 25 14 350 347 347 31 87 66 43 55 35 31 33 29 22 48 41 38 40 41 42 41 40 40 41 41 40 40
137 135 129 119 110 105 84 73 57 66 63 55 56 61 48 57 31 6 351 328 327 339 42 50 48 39 32 37 19 26 35 43 36 35 38 40 39 37 33 35 35 35 33
152 156 146 136 127 121 114 90 81 60 83 81 55 48 49 63 58 50 40 356 338 333 0 39 40 44 36 30 32 12 20 42 43 33 34 35 32 29 26 26 25 25 24
170 171 163 155 142 137 133 126 111 107 91 96 101 89 76 54 76 75 66 24 342 333 339 19 42 27 18 0 13 354 349 348 37 55 22 15 11 7 8 5 5 3 359
178 182 171 168 151 150 150 147 138 138 125 82 82 81 78 88 60 42 34 2 0 334 319 334 335 337 329 343 335 329 328 328 327 50 342 325 324 323 331 337 339 338 334
184 186 188 186 174 169 167 168 164 164 156 140 114 89 71 98 114 88 48 350 350 354 325 294 323 342 308 323 313 305 300 303 300 286 271 273 275 276 282 297 304 304 305
193 193 193 191 188 184 191 194 186 186 179 164 153 140 26 342 304 347 247 323 320 307 297 285 296 297 300 314 298 300 302 288 289 295 286 273 261 257 258 270 277 283 286
198 195 194 193 190 193 202 214 198 194 189 176 181 165 75 44 23 0 331 311 286 279 277 283 288 293 291 296 301 299 299 302 292 284 288 277 269 267 258 250 255 266 273
196 189 195 195 191 186 151 204 242 203 199 196 201 203 168 147 152 189 255 308 306 284 286 283 285 290 301 298 300 292 295 300 299 288 286 285 275 274 274 271 265 263 268
187 190 195 197 197 173 159 185 223 229 217 222 227 220 203 194 207 237 200 203 222 242 267 282 286 294 300 304 295 286 287 292 295 308 298 290 282 278 279 275 260 264 268
187 193 198 201 199 181 165 186 206 217 218 221 227 237 227 224 209 265 256 252 265 268 261 264 276 290 304 311 295 290 294 289 287 281 280 290 293 289 290 282 259 257 264
191 194 197 202 200 187 168 183 202 203 214 217 219 230 251 256 88 256 255 262 275 278 231 246 284 296 312 304 294 284 283 284 290 288 263 283 300 302 293 282 272 252 257
189 188 188 197 197 193 159 176 206 208 217 217 212 217 170 272 30 246 256 268 278 290 292 269 256 257 267 252 234 257 278 285 294 297 300 287 300 310 300 286 288 286 274
Height
1564 1564 1564 1563 1563 1563 1562 1562 1562 1561 1561 1561 1561 1560 1560 1560 1560 1560 1559 1558 1557 1556 1556 1555 1554 1553 1552 1551 1549 1548 1546 1545 1545 1544 1542 1539 1536 1537 1539 1541 1541 1542 1541
1566 1565 1565 1564 1564 1564 1564 1564 1563 1563 1563 1562 1562 1561 1561 1561 1561 1561 1560 1559 1558 1557 1557 1556 1554 1554 1553 1552 1550 1548 1546 1545 1545 1544 1543 1541 1540 1540 1541 1541 1542 1542 1541
1567 1567 1567 1566 1566 1565 1565 1565 1565 1564 1564 1563 1563 1563 1562 1562 1562 1562 1561 1561 1560 1559 1558 1557 1556 1555 1554 1553 1551 1550 1548 1546 1545 1545 1544 1543 1542 1542 1542 1542 1542 1542 1541
1569 1568 1568 1567 1567 1567 1567 1566 1566 1566 1565 1565 1565 1565 1564 1564 1564 1563 1563 1563 1562 1561 1560 1559 1557 1556 1555 1554 1553 1551 1549 1548 1547 1546 1545 1544 1543 1543 1542 1542 1542 1542 1542
1570 1570 1569 1569 1569 1569 1569 1568 1568 1568 1567 1567 1567 1566 1566 1566 1565 1565 1565 1564 1563 1562 1562 1560 1559 1558 1556 1555 1554 1552 1551 1549 1548 1547 1546 1545 1544 1543 1543 1542 1542 1542 1542
1571 1571 1570 1570 1570 1570 1570 1570 1569 1569 1569 1569 1569 1568 1568 1568 1567 1567 1566 1566 1565 1564 1563 1562 1561 1559 1558 1557 1555 1553 1552 1550 1549 1548 1547 1546 1545 1544 1543 1543 1542 1542 1542
1571 1572 1572 1572 1571 1571 1571 1571 1571 1571 1570 1570 1571 1571 1571 1570 1569 1568 1568 1568 1567 1565 1565 1563 1562 1561 1560 1558 1556 1554 1553 1551 1549 1548 1548 1547 1546 1545 1544 1544 1543 1543 1542
1572 1573 1573 1573 1572 1572 1572 1572 1572 1572 1572 1572 1573 1572 1573 1573 1571 1570 1570 1569 1568 1567 1566 1565 1563 1562 1561 1559 1558 1556 1554 1552 1551 1550 1549 1548 1547 1546 1546 1545 1544 1544 1543
1573 1573 1573 1573 1573 1573 1573 1573 1573 1573 1573 1573 1573 1574 1573 1573 1573 1573 1571 1570 1569 1568 1567 1566 1565 1563 1562 1560 1559 1557 1556 1554 1553 1552 1551 1550 1549 1548 1547 1546 1546 1545 1545
1574 1574 1574 1574 1574 1574 1574 1574 1574 1574 1574 1574 1574 1573 1574 1573 1574 1573 1573 1572 1570 1569 1568 1567 1566 1564 1563 1562 1560 1559 1557 1556 1554 1553 1552 1551 1550 1549 1549 1548 1547 1546 1545
1575 1575 1575 1575 1575 1575 1575 1575 1575 1575 1575 1575 1575 1574 1574 1573 1574 1574 1574 1573 1572 1571 1569 1568 1567 1565 1564 1562 1561 1560 1558 1557 1555 1554 1553 1552 1551 1551 1550 1549 1548 1547 1546
1576 1576 1576 1576 1576 1576 1576 1576 1575 1575 1575 1575 1574 1574 1574 1574 1574 1574 1573 1573 1572 1571 1570 1568 1567 1566 1564 1563 1562 1560 1559 1558 1556 1555 1554 1553 1552 1551 1550 1550 1549 1548 1547
1577 1577 1577 1577 1577 1577 1576 1576 1576 1576 1575 1575 1574 1574 1574 1574 1574 1574 1573 1573 1572 1572 1571 1569 1568 1566 1565 1564 1562 1561 1559 1558 1557 1556 1555 1554 1553 1552 1551 1550 1550 1549 1548
1577 1577 1577 1577 1577 1577 1577 1576 1576 1576 1576 1575 1575 1574 1574 1574 1573 1573 1573 1573 1573 1573 1572 1570 1568 1567 1565 1564 1562 1561 1560 1558 1557 1556 1555 1554 1553 1552 1552 1551 1550 1549 1547
1577 1577 1577 1578 1577 1577 1577 1577 1577 1576 1576 1576 1575 1575 1574 1574 1573 1573 1573 1573 1574 1573 1572 1570 1569 1567 1566 1564 1563 1562 1560 1558 1557 1556 1555 1554 1553 1552 1551 1550 1549 1548 1547
1577 1578 1578 1578 1578 1577 1577 1577 1577 1576 1576 1576 1575 1575 1575 1574 1574 1573 1573 1573 1573 1573 1572 1571 1569 1567 1566 1565 1563 1561 1560 1558 1557 1556 1555 1554 1553 1552 1551 1550 1549 1548 1546
1577 1578 1578 1578 1578 1578 1578 1577 1577 1577 1577 1576 1576 1575 1575 1574 1574 1573 1573 1572 1572 1572 1572 1571 1569 1567 1566 1564 1563 1561 1560 1558 1557 1556 1555 1554 1552 1551 1550 1549 1548 1546 1545
1577 1577 1578 1578 1578 1578 1578 1577 1577 1577 1576 1576 1576 1576 1575 1574 1574 1573 1572 1572 1571 1571 1571 1570 1569 1567 1565 1564 1562 1561 1560 1558 1557 1555 1554 1553 1551 1550 1549 1548 1546 1545 1544
1576 1576 1577 1577 1577 1577 1577 1577 1577 1577 1576 1576 1575 1575 1575 1574 1574 1573 1572 1572 1571 1570 1570 1569 1568 1566 1565 1563 1561 1560 1559 1557 1556 1554 1553 1551 1550 1549 1547 1546 1545 1543 1542
1575 1575 1576 1576 1576 1576 1576 1576 1576 1576 1576 1575 1575 1575 1574 1574 1573 1573 1572 1571 1571 1570 1569 1568 1567 1565 1564 1562 1561 1559 1558 1556 1555 1553 1551 1550 1548 1547 1545 1544 1542 1541 1539
1573 1574 1575 1575 1575 1575 1575 1575 1575 1575 1575 1575 1575 1574 1574 1573 1572 1572 1571 1571 1570 1569 1568 1567 1566 1565 1563 1561 1560 1558 1557 1555 1553 1551 1549 1548 1546 1545 1543 1541 1539 1538 1536
1571 1572 1573 1573 1574 1574 1574 1574 1574 1574 1574 1574 1574 1573 1573 1572 1571 1571 1570 1569 1568 1568 1567 1566 1565 1564 1562 1560 1558 1557 1555 1553 1552 1550 1547 1546 1544 1542 1541 1539 1536 1534 1532
1569 1570 1571 1571 1572 1572 1572 1573 1573 1573 1573 1573 1573 1572 1571 1571 1570 1570 1569 1568 1567 1566 1565 1564 1563 1562 1561 1559 1557 1555 1553 1551 1550 1548 1545 1543 1542 1539 1538 1535 1533 1531 1529
1567 1568 1569 1570 1570 1570 1571 1571 1571 1571 1571 1571 1571 1570 1570 1569 1568 1568 1567 1566 1566 1564 1563 1562 1561 1559 1558 1556 1555 1553 1551 1549 1547 1545 1543 1540 1539 1536 1534 1532 1529 1527 1525
1564 1565 1566 1567 1568 1568 1569 1569 1569 1569 1570 1569 1569 1568 1568 1568 1567 1566 1565 1564 1563 1562 1561 1559 1558 1557 1555 1553 1552 1550 1548 1547 1545 1543 1540 1537 1535 1533 1530 1528 1525 1523 1521
1562 1563 1564 1564 1565 1566 1566 1567 1567 1567 1568 1567 1567 1566 1566 1565 1565 1563 1563 1562 1561 1560 1559 1557 1556 1554 1552 1551 1549 1547 1546 1544 1542 1541 1538 1535 1532 1530 1526 1524 1522 1519 1517